Regional Weather Roundup
Issued by NWS Newport/Morehead, NC

Current Version | Previous Version | Graphics & Text | Print | Product List | Glossary Off
Versions: 1 2 3 4 5 6 7 8 9 10 11 12 13 14 15 16 17 18 19 20 21 22 23 24 25 26 27 28 29 30 31 32 33 34 35 36 37 38 39 40 41 42 43 44 45 46 47 48 49 50
000 ASUS42 KMHX 281725 RWRMHX WEATHER ROUNDUP FOR EASTERN NORTH CAROLINA NATIONAL WEATHER SERVICE NEWPORT/MOREHEAD CITY NC 100 PM EDT TUE MAR 28 2017 NOTE: "FAIR" INDICATES FEW OR NO CLOUDS BELOW 12,000 FEET WITH NO SIGNIFICANT WEATHER AND/OR OBSTRUCTIONS TO VISIBILITY NCZ015>017-031-032-045>047-102-103-281800- NORTH COAST CITY SKY/WX TMP DP RH WIND PRES REMARKS EDENTON LGT RAIN 66 60 80 SW7 29.95F ELIZABETH CITY LGT RAIN 67 60 78 W9 29.93F KITTY HAWK NOT AVBL MANTEO CLOUDY 71 58 63 W14G24 29.95F $$ NCZ045>047-081-094-103-104-281800- CENTRAL COAST CITY SKY/WX TMP DP RH WIND PRES REMARKS FRISCO MOSUNNY 74 62 66 SW10 29.96F HAZE $$ NCZ095-097-098-100-101-281800- SOUTHERN COAST CITY SKY/WX TMP DP RH WIND PRES REMARKS BEAUFORT LGT RAIN 67 62 84 W6 29.96F CEDAR ISLAND NOT AVBL JACKSONVILLE NOT AVBL PINEY ISLAND CLOUDY N/A N/A N/A W15 29.96F WILMINGTON CLOUDY 77 61 57 S10 29.95F $$ NCZ011>013-027>030-043-044-078>080-089-090>093-098-281800- COASTAL PLAIN CITY SKY/WX TMP DP RH WIND PRES REMARKS AHOSKIE N/A 65 60 85 S5 29.94F CLINTON CLOUDY 73 66 77 S5 29.93F ELIZABETHTOWN CLOUDY 75 63 66 SW9 29.94F GOLDSBORO CLOUDY 66 66 100 S3 29.92F GREENVILLE PTSUNNY 64 64 100 SW5 29.96F HAVELOCK PTSUNNY 68 62 81 SW7 29.98F KENANSVILLE LGT RAIN 66 63 88 CALM 29.94F KINSTON CLOUDY 64 63 94 S8 29.94F NEW BERN HVY RAIN 63 62 97 S8 29.96F FOG RICHLANDS CLOUDY 69 64 84 S8 29.94F ROCKY MOUNT CLOUDY 66 65 96 S7 29.93F WASHINGTON LGT RAIN 63 61 94 S6 29.95F WHITEVILLE CLOUDY 79 59 50 S9 29.93F $$ AMZ130-135-150-152-154-156-158-170-250-252-270-ANZ085-086-088-633-658-670-281800- MARINE OBSERVATIONS STATION/POSITION TIME TEMP WIND PRES WAVE SWELL AIR SEA DIR/SP/G HT/PER HT/PER (UTC) (F) (DEG/KT/KT) (MB) (FT/S) (FT/S) CHESAPEAKE LIGHT NOT AVBL 64 E VA BEACH NOT AVBL DUCK 1700 67 47 240/ 10/ 12 1013.3 2 E DUCK NOT AVBL OREGON INLET 1700 64 60 190/ 13/ 16 1013.9 13E OREGON INLT NOT AVBL HATTERAS CG 1700 71 62 250/ 9/ 11 1014.2 DIAMOND BUOY NOT AVBL CAPE LOOKOUT 1700 67 230/ 9/ 11 1014.6 BEAUFORT LAB 1700 65 60 260/ 3/ 5 1013.7 30 SE NEW RVR IN NOT AVBL 30 SE NEW RVR IN NOT AVBL 27 SE WRIGHTSVLE NOT AVBL 5 SE WRIGHTSVLE NOT AVBL 225 S CAPE HAT NOT AVBL 41 SE CHARLESTON NOT AVBL $$

USA.gov is the U.S. government's official web portal to all federal, state and local government web resources and services.